Location: *
(34.6780°N, 135.8310°E)
Time: 05:13:04
(UTC+00:00)

Cosmos 44 - Pass Details

Date: 18 October 2019
Orbit: 593 x 769 km, 65.1° (Epoch: 18 November)

Event Time Altitude Azimuth Distance (km) Brightness Sun altitude
Exits shadow 19:19:33 11° 348° (NNW) 1,841 5.4 -22.4°
Maximum altitude 19:23:22 39° 57° (ENE) 887 4.3 -21.6°
Drops below altitude 10° 19:27:25 10° 127° (SE) 1,921 6.3 -20.8°
Sets 19:29:46 0° 135° (SE) 2,828 7.1 -20.3°
